Humidity-temperature Sensor

Selected Measurement Type: Air Temperature

 
Air Temperature [°C]     6 entries per hour
Showing data from 10/31/2014 (00:00:00 Z) to 10/24/2014 (00:01:00 Z)
Previous Next [ Day | 3-Days | 7-Days ]
First Last
Prev [ Day | 3-Days | 7-Days ] Next
First Last

Start Time:     :
End Time:     :     
Time (in GMT) :00 :50 :40 :30 :20 :10
Previous Next [ Day | 3-Days | 7-Days ]
First Last
Prev [ Day | 3-Days | 7-Days ] Next
First Last


123 => good data
MM => data is determined as missing
-- => data not received/configured
Back to Top Back to Top
10/31/2014 00:00 to 23:10 25.56 25.51 25.46 25.46 25.38 25.27
10/30/2014 23:00 to 22:10 25.25 25.34 25.39 25.42 25.19 25.36
10/30/2014 22:00 to 21:10 25.21 25.11 25.24 25.16 25.09 25.13
10/30/2014 21:00 to 20:10 25.05 25.18 25.14 25.08 25.19 25.18
10/30/2014 20:00 to 19:10 25.25 25.10 25.13 25.12 25.07 24.95
10/30/2014 19:00 to 18:10 25.01 25.01 25.00 24.91 24.80 24.57
10/30/2014 18:00 to 17:10 25.16 25.04 25.10 25.03 25.32 25.11
10/30/2014 17:00 to 16:10 25.18 25.33 25.26 25.28 25.23 25.24
10/30/2014 16:00 to 15:10 25.31 25.32 24.96 24.99 25.32 25.35
10/30/2014 15:00 to 14:10 25.12 25.12 24.89 24.76 24.63 24.63
10/30/2014 14:00 to 13:10 24.58 24.62 24.51 24.59 24.63 24.60
10/30/2014 13:00 to 12:10 24.56 24.56 24.54 24.65 24.54 24.58
10/30/2014 12:00 to 11:10 24.64 24.48 24.57 24.63 24.62 24.54
10/30/2014 11:00 to 10:10 24.53 24.65 24.55 24.60 24.53 24.71
10/30/2014 10:00 to 9:10 24.65 24.64 24.68 24.62 24.62 24.63
10/30/2014 09:00 to 8:10 24.74 24.67 24.73 24.85 24.98 24.77
10/30/2014 08:00 to 7:10 24.86 24.97 24.97 24.87 24.90 24.82
10/30/2014 07:00 to 6:10 24.85 24.90 24.87 24.79 24.84 25.02
10/30/2014 06:00 to 5:10 24.90 24.98 25.04 25.02 24.84 25.00
10/30/2014 05:00 to 4:10 24.94 24.94 24.95 24.93 24.94 24.94
10/30/2014 04:00 to 3:10 24.81 24.94 25.04 24.99 24.90 24.96
10/30/2014 03:00 to 2:10 24.84 25.00 24.83 24.91 24.94 25.00
10/30/2014 02:00 to 1:10 24.95 24.98 25.28 25.26 25.36 25.60
10/30/2014 01:00 to 0:10 25.59 25.62 25.56 25.52 25.52 25.41
10/30/2014 00:00 to 23:10 25.52 25.38 25.45 25.36 25.38 25.25
10/29/2014 23:00 to 22:10 25.27 25.14 25.27 25.20 25.11 25.20
10/29/2014 22:00 to 21:10 25.27 25.13 25.10 25.20 25.16 25.22
10/29/2014 21:00 to 20:10 25.14 24.93 25.07 25.12 25.00 24.95
10/29/2014 20:00 to 19:10 25.10 24.91 24.97 24.99 24.90 24.89
10/29/2014 19:00 to 18:10 24.95 24.90 24.94 24.90 24.96 24.96
10/29/2014 18:00 to 17:10 24.91 24.95 25.02 24.99 25.16 25.07
10/29/2014 17:00 to 16:10 25.04 25.16 25.20 25.11 25.18 24.88
10/29/2014 16:00 to 15:10 25.05 24.93 24.88 24.91 25.33 25.29
10/29/2014 15:00 to 14:10 25.22 24.82 25.27 24.94 24.85 24.85
10/29/2014 14:00 to 13:10 24.90 24.76 25.01 24.80 24.83 24.88
10/29/2014 13:00 to 12:10 24.75 24.73 24.72 24.76 24.82 24.84
10/29/2014 12:00 to 11:10 24.76 24.78 24.86 24.73 24.73 24.72
10/29/2014 11:00 to 10:10 24.68 24.78 24.72 24.76 24.72 24.79
10/29/2014 10:00 to 9:10 24.90 24.87 24.79 24.99 24.89 24.87
10/29/2014 09:00 to 8:10 24.88 24.92 24.88 24.91 24.94 25.03
10/29/2014 08:00 to 7:10 25.01 25.06 25.03 25.06 25.02 25.11
10/29/2014 07:00 to 6:10 25.12 25.02 25.11 25.19 25.19 25.10
10/29/2014 06:00 to 5:10 25.07 25.05 25.13 25.12 25.28 25.26
10/29/2014 05:00 to 4:10 25.36 25.39 25.40 25.36 25.29 25.28
10/29/2014 04:00 to 3:10 25.14 25.17 25.01 24.78 25.14 25.38
10/29/2014 03:00 to 2:10 25.22 25.39 25.25 25.36 25.37 25.39
10/29/2014 02:00 to 1:10 25.29 25.45 25.46 25.61 25.74 25.68
10/29/2014 01:00 to 0:10 25.77 25.79 25.87 25.77 25.67 25.74
10/29/2014 00:00 to 23:10 25.73 25.85 25.75 25.75 25.75 25.71
10/28/2014 23:00 to 22:10 25.67 25.88 25.67 25.62 25.74 25.77
10/28/2014 22:00 to 21:10 25.69 25.58 25.59 25.61 25.63 25.59
10/28/2014 21:00 to 20:10 25.60 25.57 25.54 25.65 25.62 25.81
10/28/2014 20:00 to 19:10 25.80 26.04 25.78 25.70 25.72 25.82
10/28/2014 19:00 to 18:10 25.83 25.76 25.57 25.69 25.58 25.60
10/28/2014 18:00 to 17:10 25.56 25.51 25.56 25.63 25.64 25.52
10/28/2014 17:00 to 16:10 25.69 25.55 25.58 25.47 25.39 25.46
10/28/2014 16:00 to 15:10 25.36 25.39 25.46 25.50 25.55 25.50
10/28/2014 15:00 to 14:10 25.65 25.53 25.47 25.49 25.30 25.44
10/28/2014 14:00 to 13:10 25.38 25.39 25.24 25.18 25.18 25.22
10/28/2014 13:00 to 12:10 25.18 25.20 25.28 25.25 25.15 25.19
10/28/2014 12:00 to 11:10 25.21 25.06 25.12 25.19 25.11 25.02
10/28/2014 11:00 to 10:10 25.06 25.03 25.12 25.16 25.17 24.96
10/28/2014 10:00 to 9:10 25.01 24.97 25.06 25.12 25.03 25.00
10/28/2014 09:00 to 8:10 25.14 25.25 25.04 25.06 25.18 25.15
10/28/2014 08:00 to 7:10 25.07 25.22 24.98 25.23 25.33 25.13
10/28/2014 07:00 to 6:10 25.18 25.18 25.26 25.38 25.22 25.34
10/28/2014 06:00 to 5:10 25.26 25.13 25.28 25.28 25.40 25.21
10/28/2014 05:00 to 4:10 25.17 25.29 25.69 25.48 25.38 25.32
10/28/2014 04:00 to 3:10 -- -- -- -- -- --
10/28/2014 03:00 to 2:10 25.56 25.71 25.52 25.51 25.56 25.72
10/28/2014 02:00 to 1:10 25.67 25.80 25.73 25.88 25.91 26.12
10/28/2014 01:00 to 0:10 26.16 26.38 26.41 26.23 26.09 26.12
10/28/2014 00:00 to 23:10 26.07 25.97 26.16 25.87 25.91 25.85
10/27/2014 23:00 to 22:10 25.95 25.64 25.90 25.89 25.91 26.10
10/27/2014 22:00 to 21:10 26.02 26.12 26.25 26.40 26.44 26.35
10/27/2014 21:00 to 20:10 26.53 26.53 26.63 26.44 26.65 26.28
10/27/2014 20:00 to 19:10 26.26 25.91 26.09 25.93 26.12 25.95
10/27/2014 19:00 to 18:10 25.90 25.99 25.98 26.00 25.85 25.82
10/27/2014 18:00 to 17:10 25.87 25.96 26.08 25.46 25.27 25.62
10/27/2014 17:00 to 16:10 25.56 25.31 25.43 25.09 25.13 25.57
10/27/2014 16:00 to 15:10 25.47 25.48 25.52 25.61 25.53 25.45
10/27/2014 15:00 to 14:10 25.52 25.41 25.38 25.34 25.43 25.36
10/27/2014 14:00 to 13:10 25.33 25.40 25.31 25.38 25.43 25.31
10/27/2014 13:00 to 12:10 25.43 25.40 25.37 25.31 25.32 25.44
10/27/2014 12:00 to 11:10 25.50 25.35 25.26 25.32 25.34 25.36
10/27/2014 11:00 to 10:10 25.32 25.36 25.34 25.19 25.24 25.15
10/27/2014 10:00 to 9:10 24.98 24.79 25.14 24.95 24.95 24.27
10/27/2014 09:00 to 8:10 24.70 25.36 25.52 25.41 25.44 25.41
10/27/2014 08:00 to 7:10 25.39 25.69 25.35 25.48 25.36 25.59
10/27/2014 07:00 to 6:10 25.49 25.59 25.67 25.59 25.50 25.63
10/27/2014 06:00 to 5:10 25.45 25.61 25.59 25.41 25.59 25.52
10/27/2014 05:00 to 4:10 25.58 25.48 25.47 25.47 25.50 25.45
10/27/2014 04:00 to 3:10 25.43 25.51 25.69 25.51 25.42 25.43
10/27/2014 03:00 to 2:10 25.37 25.33 25.49 25.34 25.58 25.54
10/27/2014 02:00 to 1:10 25.34 25.57 25.62 25.55 25.70 25.80
10/27/2014 01:00 to 0:10 25.56 25.62 25.62 25.70 25.57 25.65
10/27/2014 00:00 to 23:10 25.46 25.59 25.75 25.61 25.65 25.67
10/26/2014 23:00 to 22:10 25.63 25.64 25.65 25.73 25.66 25.63
10/26/2014 22:00 to 21:10 25.71 25.68 25.56 25.59 25.65 25.60
10/26/2014 21:00 to 20:10 25.81 25.82 25.68 25.63 25.51 25.54
10/26/2014 20:00 to 19:10 25.63 25.65 25.61 25.62 25.64 25.59
10/26/2014 19:00 to 18:10 25.62 25.72 25.52 25.70 25.52 25.68
10/26/2014 18:00 to 17:10 25.62 25.65 25.55 25.55 26.01 25.66
10/26/2014 17:00 to 16:10 25.74 25.79 25.63 25.79 25.48 25.48
10/26/2014 16:00 to 15:10 25.50 25.86 25.38 25.36 25.59 25.43
10/26/2014 15:00 to 14:10 25.23 25.35 24.98 25.33 25.08 25.05
10/26/2014 14:00 to 13:10 25.26 25.12 25.02 24.92 25.04 25.00
10/26/2014 13:00 to 12:10 25.06 25.04 25.27 24.99 25.02 25.18
10/26/2014 12:00 to 11:10 25.07 25.16 25.10 25.18 25.27 25.04
10/26/2014 11:00 to 10:10 25.22 25.16 25.21 25.23 25.28 25.17
10/26/2014 10:00 to 9:10 25.19 25.05 25.15 25.19 25.20 25.28
10/26/2014 09:00 to 8:10 25.35 25.30 25.31 25.24 25.28 25.35
10/26/2014 08:00 to 7:10 25.40 25.48 25.36 25.44 25.42 25.37
10/26/2014 07:00 to 6:10 25.51 25.23 25.44 25.36 25.54 25.55
10/26/2014 06:00 to 5:10 25.54 25.44 25.41 25.55 25.49 25.50
10/26/2014 05:00 to 4:10 25.47 25.43 25.37 25.49 25.61 25.46
10/26/2014 04:00 to 3:10 25.49 25.52 25.56 25.51 25.40 25.56
10/26/2014 03:00 to 2:10 25.54 25.60 25.65 25.60 25.47 25.52
10/26/2014 02:00 to 1:10 25.64 25.53 25.57 25.69 25.88 25.70
10/26/2014 01:00 to 0:10 25.91 25.75 25.75 25.88 25.84 25.70
10/26/2014 00:00 to 23:10 25.79 25.78 25.83 25.91 25.80 25.85
10/25/2014 23:00 to 22:10 25.70 25.73 25.72 25.69 25.62 25.72
10/25/2014 22:00 to 21:10 25.77 25.86 25.77 25.69 25.65 25.65
10/25/2014 21:00 to 20:10 25.74 25.73 25.78 25.85 25.77 25.76
10/25/2014 20:00 to 19:10 25.71 25.79 25.93 25.60 25.73 25.67
10/25/2014 19:00 to 18:10 25.64 25.73 25.69 25.76 25.62 25.74
10/25/2014 18:00 to 17:10 25.75 25.90 25.74 25.78 25.68 25.93
10/25/2014 17:00 to 16:10 25.95 26.05 26.01 26.04 25.88 25.93
10/25/2014 16:00 to 15:10 25.90 25.56 25.57 25.87 25.90 25.96
10/25/2014 15:00 to 14:10 25.89 25.38 25.29 25.40 25.59 25.31
10/25/2014 14:00 to 13:10 25.19 25.14 25.41 25.33 25.33 25.29
10/25/2014 13:00 to 12:10 25.36 25.31 25.27 25.36 25.42 25.41
10/25/2014 12:00 to 11:10 25.39 25.24 25.20 25.24 25.22 25.38
10/25/2014 11:00 to 10:10 25.36 25.26 25.43 25.45 25.40 25.40
10/25/2014 10:00 to 9:10 25.43 25.41 25.41 25.49 25.33 25.37
10/25/2014 09:00 to 8:10 25.46 25.58 25.51 25.40 25.64 25.62
10/25/2014 08:00 to 7:10 25.49 25.68 25.59 25.62 25.71 25.67
10/25/2014 07:00 to 6:10 25.77 25.74 25.83 25.64 25.78 25.80
10/25/2014 06:00 to 5:10 25.72 25.76 25.83 25.68 25.93 25.93
10/25/2014 05:00 to 4:10 25.71 25.75 26.02 25.86 25.74 25.79
10/25/2014 04:00 to 3:10 25.88 25.67 25.66 25.75 25.62 25.84
10/25/2014 03:00 to 2:10 25.77 25.86 25.59 25.74 25.75 26.07
10/25/2014 02:00 to 1:10 25.84 25.91 25.98 26.01 26.09 26.17
10/25/2014 01:00 to 0:10 26.01 26.04 25.80 26.15 25.80 26.28
10/25/2014 00:00 to 23:10 25.95 26.01 25.99 26.06 26.00 25.96
10/24/2014 23:00 to 22:10 25.90 25.83 25.90 25.92 26.03 25.80
10/24/2014 22:00 to 21:10 25.99 25.74 25.86 25.75 25.73 25.85
10/24/2014 21:00 to 20:10 25.84 25.66 25.87 25.78 25.70 25.77
10/24/2014 20:00 to 19:10 25.70 25.80 25.81 25.74 25.83 25.74
10/24/2014 19:00 to 18:10 25.68 25.68 25.77 25.74 25.95 25.76
10/24/2014 18:00 to 17:10 25.79 25.76 25.78 25.94 25.73 25.83
10/24/2014 17:00 to 16:10 25.80 25.97 25.85 25.92 25.94 25.95
10/24/2014 16:00 to 15:10 25.92 25.89 25.74 25.73 25.78 25.62
10/24/2014 15:00 to 14:10 25.76 25.78 25.65 25.47 25.42 25.40
10/24/2014 14:00 to 13:10 25.39 25.29 25.21 25.34 25.30 25.31
10/24/2014 13:00 to 12:10 25.46 25.32 25.45 25.37 25.35 25.23
10/24/2014 12:00 to 11:10 25.31 25.52 25.38 25.39 25.40 25.46
10/24/2014 11:00 to 10:10 25.56 25.57 25.26 25.58 25.66 25.61
10/24/2014 10:00 to 9:10 25.44 25.58 25.59 25.60 25.59 25.69
10/24/2014 09:00 to 8:10 25.55 25.67 25.58 25.67 25.82 25.82
10/24/2014 08:00 to 7:10 25.65 25.75 25.84 25.91 25.68 25.81
10/24/2014 07:00 to 6:10 25.86 25.84 25.72 25.81 25.66 25.65
10/24/2014 06:00 to 5:10 25.87 25.76 25.65 25.69 25.40 25.86
10/24/2014 05:00 to 4:10 25.78 25.93 25.82 25.79 25.84 25.85
10/24/2014 04:00 to 3:10 25.78 25.77 25.84 25.84 25.84 25.75
10/24/2014 03:00 to 2:10 25.91 25.75 25.77 25.79 25.83 25.66
10/24/2014 02:00 to 1:10 25.79 25.80 25.88 25.84 26.02 26.08
10/24/2014 01:00 to 0:10 26.02 26.25 26.21 26.19 26.09 26.27